Notices

What's New in latest Release from April 7th, 2021:

- Updated Glossary, including Speed of Maximum Gust, and Total Hourly Precipitation

- Updated national and regional climate services offices contacts and prices information

- Addition of station inventory lists for 1981-2010, 1971-2000, and 1961-1990 Normals.

If you haven't already, please take our survey and provide feedback about our website: https://eccc.sondage-survey.ca/f/LanguageSelection.aspx?s=442ca660-fcf1-47c0-95a9-59707d6fd709

Hourly Data Report for February 27, 2021

OTTAWA INTL A
ONTARIO
Current Station Operator: NAVCAN

45°19'00.000" N
75°40'00.000" W
114.90 m
6106001
71628
YOW

Download Data

Hourly Data (February 2021)
Hourly Data Report for February 27, 2021
TIME
LST
Temp Definition
°C
Dew Point Definition
°C
Rel Hum Definition
%
Precip. Amount Definition
mm

Wind Dir Definition
10's deg

Wind Spd Definition
km/h
Visibility Definition
km
Stn Press Definition
kPa
Hmdx Definition


Wind Chill Definition


Weather Definition


00:00 -10.6 -13.2 81   6 10 24.1 101.02   -16 LegendNANA
01:00 -9.9 -12.2 84   6 10 24.1 100.95   -15 Clear
02:00 -10.9 -12.6 88   6 13 24.1 100.82   -17 LegendNANA
03:00 -12.2 -13.9 87   5 18 24.1 100.72   -20 LegendNANA
04:00 -11.0 -13.2 84   7 13 24.1 100.62   -17 Mostly Cloudy
05:00 -10.3 -12.6 84   9 9 24.1 100.51   -15 LegendNANA
06:00 -10.2 -12.5 84   6 16 24.1 100.42   -17 LegendNANA
07:00 -9.5 -11.9 83   5 16 24.1 100.38   -16 Cloudy
08:00 -8.2 -11.1 80   7 16 24.1 100.24   -15 LegendNANA
09:00 -7.3 -9.4 85   6 14 9.7 100.09   -13 Snow
10:00 -6.3 -7.7 90   6 15 1.6 99.95   -12 Snow
11:00 -5.2 -6.3 92   8 18 0.8 99.81   -11 Moderate Snow
12:00 -4.1 -5.1 93   8 21 0.8 99.65   -11 Moderate Snow,Blowing Snow
13:00 -1.7 -2.6 94   17 8 9.7 99.61   -5 Snow
14:00 0.9 0.4 96   20 14 12.9 99.51     Snow
15:00 3.1 1.6 90   24 27 24.1 99.61     LegendNANA
16:00 2.8 0.2 83   27 37 24.1 99.79     Mostly Cloudy
17:00 1.3 -2.1 78   29 33 24.1 100.03     LegendNANA
18:00 0.0 -2.9 80   28 19 24.1 100.22   -5 LegendNANA
19:00 -1.5 -3.5 87   24 9 24.1 100.39   -5 Clear
20:00 -1.3 -2.8 89   22 13 24.1 100.55   -6 LegendNANA
21:00 -0.2 -1.7 90   22 10 24.1 100.71   -4 LegendNANA
22:00 0.4 -1.7 86   31 10 24.1 100.74     Cloudy
23:00 -0.3 -1.8 90   23 5 24.1 100.84   -2 LegendNANA

Notes on Data Quality.

Legend

  • E = Estimated
  • M = Missing
  • NA = Not Available*
  • [empty] = Indicates an unobserved value
Date modified: